Home   Weather   Lidzbark Warmiński   Past weeks

Flag for Poland Past Weather in Lidzbark Warmiński, Poland — Yesterday and Last 2 Weeks

Now
39 °F

Fog.


Feels Like: 34 °F
Forecast: 38 / 42 °F
Wind: 7 mph from Southwest

Location: Ketrzyn

Current Time: Feb 20, 2017 at 12:44:43 pm

Latest Report: Feb 20, 2017 at 11:00 am


Visibility: 5 mi

Pressure: 29.79 "Hg

Humidity: 88%

Dew Point: 36 °F

Location of Lidzbark WarmińskiLocation

Past Weather in Lidzbark Warmiński — Graph

°F

Lidzbark Warmiński Temperature Yesterday

Maximum temperature yesterday: 38 °F (at 2:00 pm)
Minimum temperature yesterday: 34 °F (at 7:00 am)
Average temperature yesterday: 36 °F

High & Low Weather Summary for the Past Weeks

 TemperatureHumidityPressure
High39 °F (Feb 16, 3:00 pm)100% (Feb 15, 5:00 am)30.78 "Hg (Feb 15, 5:00 am)
Low12 °F (Feb 8, 7:00 am)40% (Feb 10, 5:00 pm)29.79 "Hg (Feb 20, 11:00 am)
Average26 °F84%30.42 "Hg
* Reported Feb 5 11:00 am — Feb 20 11:00 am, Lidzbark Warmiński, Weather by CustomWeather, © 2017

Note: Actual official high and low records may vary slightly from our data, if they occured in-between our weather recording intervals... More about our weather records

Advertising

Lidzbark Warmiński Weather History for the Previous 24 Hours

Scroll right to see more
 ConditionsComfort  
Time TempWeatherWind HumidityBarometerVisibility
11:00 am
Mon, Feb 20
39 °FFog.7 mph88%29.79 "Hg5 mi
10:00 am38 °FFog.7 mph89%29.80 "Hg4 mi
9:00 am38 °FFog.7 mph90%29.83 "Hg3 mi
8:00 am37 °FFog.6 mph92%29.83 "Hg2 mi
7:00 am36 °FFog.6 mph93%29.85 "Hg2 mi
6:00 am36 °FFog.6 mph94%29.87 "Hg2 mi
5:00 am37 °FFog.6 mph92%29.88 "Hg2 mi
4:00 am37 °FFog.5 mph91%29.90 "Hg3 mi
3:00 am36 °FFog.5 mph90%29.90 "Hg3 mi
2:00 am36 °FFog.3 mph90%29.90 "Hg3 mi
1:00 am35 °FFog.3 mph90%29.93 "Hg3 mi
12:00 am36 °FFog.3 mph89%29.94 "Hg4 mi
11:00 pm
Sun, Feb 19
37 °FFog.3 mph86%29.96 "Hg4 mi
10:00 pm37 °FFog.3 mph85%29.96 "Hg4 mi
9:00 pm36 °FFog.3 mph88%29.96 "Hg3 mi
8:00 pm36 °FChilly.6 mph86%29.96 "Hg4 mi
7:00 pm36 °FFog.6 mph86%29.97 "Hg4 mi
6:00 pm36 °FFog.6 mph88%29.98 "Hg4 mi
5:00 pm36 °FFog.6 mph89%29.98 "Hg4 mi
4:00 pm36 °FFog.6 mph86%29.98 "Hg4 mi
3:00 pm36 °FFog.6 mph87%30.00 "Hg4 mi
2:00 pm38 °FChilly.7 mph81%30.01 "Hg7 mi
1:00 pm37 °FChilly.7 mph82%30.02 "Hg7 mi
12:00 pm36 °FChilly.7 mph81%30.05 "Hg9 mi
Weather by CustomWeather, © 2017

See weather overviewHow to use our weather pages